KA7RLM Weather Reports


Display with metric or nautical units.
time (UTC)temp
F
wind
direction
speed
MPH
gust
MPH
rain 1hr
in
rain 24hr
in
rain mn
in
humidity
%
barometer
mb
20260503184018 73 226 3.0 6.0 0.00 0.00 0.00 55 1013.7
20260503183022 73 271 3.0 5.0 0.00 0.00 0.00 56 1013.7
20260503182024 72 270 2.0 3.0 0.00 0.00 0.00 59 1013.9
20260503181027 71 276 3.0 4.0 0.00 0.00 0.00 59 1013.9
20260503180024 72 210 1.0 3.0 0.00 0.00 0.00 60 1014.0
20260503175028 71 68 3.0 4.0 0.00 0.00 0.00 60 1014.0
20260503174033 71 203 2.0 3.0 0.00 0.00 0.00 62 1014.1
20260503173017 70 70 2.0 3.0 0.00 0.00 0.00 63 1014.2
20260503172020 68 235 2.0 4.0 0.00 0.00 0.00 65 1014.2
20260503171023 67 352 2.0 4.0 0.00 0.00 0.00 67 1014.2
20260503131032 53 0.0 0.0 0.00 0.00 0.00 98 1014.2
20260503081016 59 130 2.0 3.0 0.00 0.00 0.00 78 1014.7
20260503072026 61 118 3.0 4.0 0.00 0.00 0.00 69 1014.7
20260503071024 61 110 3.0 3.0 0.00 0.00 0.00 70 1014.7
20260503055026 63 123 2.0 3.0 0.00 0.00 0.00 65 1014.4
20260503054030 63 117 2.0 3.0 0.00 0.00 0.00 66 1014.4
20260503053016 63 113 2.0 3.0 0.00 0.00 0.00 67 1014.4
20260503052039 63 105 1.0 2.0 0.00 0.00 0.00 66 1014.2
20260503051046 63 116 3.0 3.0 0.00 0.00 0.00 66 1014.2
20260503050025 64 0.0 0.0 0.00 0.00 0.00 64 1014.2
20260503045021 64 113 1.0 2.0 0.00 0.00 0.00 63 1014.1
20260503044019 65 148 0.0 2.0 0.00 0.00 0.00 61 1014.0
20260503043017 66 238 0.0 2.0 0.00 0.00 0.00 59 1014.0
20260503042027 66 225 1.0 2.0 0.00 0.00 0.00 59 1013.9
20260503041030 66 277 1.0 2.0 0.00 0.00 0.00 58 1013.7
20260503040015 67 200 2.0 3.0 0.00 0.00 0.00 57 1013.5
20260503035018 67 277 1.0 2.0 0.00 0.00 0.00 56 1013.4
20260503034022 68 251 2.0 5.0 0.00 0.00 0.00 56 1013.3
20260503033024 69 227 2.0 4.0 0.00 0.00 0.00 55 1013.2
20260503032027 70 234 3.0 4.0 0.00 0.00 0.00 53 1013.0
20260503031030 71 262 3.0 4.0 0.00 0.00 0.00 52 1012.8
20260503030036 73 222 3.0 5.0 0.00 0.00 0.00 50 1012.8
20260503025020 74 234 3.0 4.0 0.00 0.00 0.00 48 1012.8
20260503024018 75 258 2.0 3.0 0.00 0.00 0.00 47 1012.7
20260503023020 76 292 3.0 5.0 0.00 0.00 0.00 46 1012.7
20260503022023 76 249 4.0 5.0 0.00 0.00 0.00 46 1012.7
20260503021046 77 239 4.0 5.0 0.00 0.00 0.00 45 1012.7
20260503020029 78 230 4.0 6.0 0.00 0.00 0.00 44 1012.7
20260503015033 78 292 3.0 5.0 0.00 0.00 0.00 45 1012.7
20260503014018 78 297 3.0 5.0 0.00 0.00 0.00 45 1012.7
20260503013021 78 267 3.0 5.0 0.00 0.00 0.00 46 1012.7
20260503012026 78 256 4.0 7.0 0.00 0.00 0.00 44 1012.8
20260503011023 78 200 3.0 6.0 0.00 0.00 0.00 45 1012.8
20260503010019 77 268 4.0 6.0 0.00 0.00 0.00 46 1012.9
20260503005058 76 259 5.0 7.0 0.00 0.00 0.00 46 1013.0
20260503004032 76 240 5.0 8.0 0.00 0.00 0.00 45 1013.0
20260503003017 76 312 4.0 6.0 0.00 0.00 0.00 45 1013.0
20260503002053 77 238 5.0 7.0 0.00 0.00 0.00 45 1013.2
20260503001018 76 249 4.0 7.0 0.00 0.00 0.00 46 1013.2
20260503000026 76 252 3.0 6.0 0.00 0.00 0.00 47 1013.2
20260502235024 76 338 4.0 7.0 0.00 0.00 0.00 48 1013.3
20260502234047 76 338 5.0 8.0 0.00 0.00 0.00 49 1013.4
20260502233031 76 229 5.0 6.0 0.00 0.00 0.00 50 1013.7
20260502232016 75 229 5.0 8.0 0.00 0.00 0.00 51 1013.9
20260502231053 75 220 5.0 8.0 0.00 0.00 0.00 51 1014.0
20260502230017 76 305 3.0 6.0 0.00 0.00 0.00 51 1014.1
20260502225021 77 292 4.0 6.0 0.00 0.00 0.00 52 1014.3
20260502224027 75 248 3.0 6.0 0.00 0.00 0.00 53 1014.4
20260502223027 75 337 5.0 6.0 0.00 0.00 0.00 53 1014.4
20260502222024 76 263 4.0 9.0 0.00 0.00 0.00 54 1014.4
20260502221027 75 319 3.0 5.0 0.00 0.00 0.00 54 1014.7
20260502220030 75 205 3.0 6.0 0.00 0.00 0.00 55 1014.7
20260502215026 73 266 5.0 8.0 0.00 0.00 0.00 56 1014.8
20260502214018 74 348 4.0 7.0 0.00 0.00 0.00 56 1014.9
20260502213020 73 341 3.0 5.0 0.00 0.00 0.00 55 1014.9
20260502212017 74 91 2.0 4.0 0.00 0.00 0.00 55 1015.2
20260502211046 73 3 3.0 6.0 0.00 0.00 0.00 54 1015.4
20260502210030 72 306 3.0 5.0 0.00 0.00 0.00 57 1015.4
20260502205018 73 349 3.0 5.0 0.00 0.00 0.00 55 1015.4
20260502204028 72 346 4.0 6.0 0.00 0.00 0.00 58 1015.4
20260502203027 71 277 3.0 7.0 0.00 0.00 0.00 58 1015.4
20260502202027 71 353 3.0 5.0 0.00 0.00 0.00 58 1015.6
20260502201049 71 342 2.0 6.0 0.00 0.00 0.00 60 1015.7
20260502200032 69 243 3.0 5.0 0.00 0.00 0.00 61 1015.9
20260502195057 68 249 3.0 5.0 0.00 0.00 0.00 63 1016.0
20260502194040 70 188 1.0 3.0 0.00 0.00 0.00 63 1016.1
20260502193023 67 221 3.0 5.0 0.00 0.00 0.00 65 1016.2
20260502192047 67 177 1.0 3.0 0.00 0.00 0.00 66 1016.4
20260502191025 65 205 3.0 4.0 0.00 0.00 0.00 67 1016.4
20260502190053 65 320 2.0 4.0 0.00 0.00 0.00 68 1016.7
20260502185031 65 326 3.0 5.0 0.00 0.00 0.00 69 1016.8